Regional Weather Roundup
Issued by NWS

Home | Current Version | Previous Version | Graphics & Text | Print | Product List | Glossary On
Versions: 1 2 3 4 5 6 7 8 9 10 11 12 13 14 15 16 17 18 19 20 21 22 23 24 25 26 27 28 29 30 31 32 33 34 35 36 37 38 39 40 41 42 43 44 45 46 47 48 49 50
000
ASUS43 KLOT 180108
RWRIL

ILLINOIS REGIONAL WEATHER ROUNDUP
NATIONAL WEATHER SERVICE CHICAGO/ROMEOVILLE IL
800 PM CDT THU AUG 17 2017

NOTE: "FAIR" INDICATES FEW OR NO CLOUDS BELOW 12,000 FEET WITH NO
SIGNIFICANT WEATHER AND/OR OBSTRUCTIONS TO VISIBILITY.

* THESE STATIONS ARE NOT UNDER NWS QUALITY CONTROL. THEY ALSO MAY NOT
  REPORT WEATHER SUCH AS PRECIPITATION OR FOG.

ILZ001-002-007-009-015-016-024-180200-
NORTHWEST ILLINOIS

CITY           SKY/WX    TMP DP  RH WIND       PRES   REMARKS
MOLINE         PTCLDY    76  63  64 W13       29.81R
STERLING*      CLOUDY    75  66  73 W12       29.79R
SAVANNA*       CLOUDY    75  65  72 W9        29.78S
$$

ILZ003-004-008-010-011-017-018-180200-
NORTH CENTRAL ILLINOIS

CITY           SKY/WX    TMP DP  RH WIND       PRES   REMARKS
ROCKFORD       CLOUDY    74  64  71 W17G26    29.77R
FREEPORT*      CLOUDY    71  64  77 W7        29.79R
ROCHELLE*      CLOUDY    74  65  74 W16       29.79R
DE KALB*       CLOUDY    74  65  72 W13G18    29.78R
PERU*          PTCLDY    74  63  70 W10G16    29.80R
$$

ILZ005-006-012>014-019>023-180200-
NORTHEAST ILLINOIS

CITY           SKY/WX    TMP DP  RH WIND       PRES   REMARKS
CHICAGO-OHARE  MOCLDY    78  64  61 W20       29.74R HX  80
CHICAGO-MIDWAY MOCLDY    80  65  59 W12       29.74R HX  82
AURORA         MOCLDY    76  66  71 W10       29.77R
LANSING*       PTCLDY    77  64  64 SW9       29.77R
JOLIET*        MOCLDY    79  68  69 W7        29.78R HX  81
WAUKEGAN       CLOUDY    76  64  66 VRB5      29.71R
DUPAGE AIRPORT CLOUDY    77  66  68 W15G25    29.75R
KANKAKEE*      MOCLDY    77  69  76 CALM      29.80R
WHEELING       PTCLDY    77  66  68 W12G20    29.74R
MORRIS*        MOCLDY    76  67  73 W13       29.77R
ROMEOVILLE*    CLOUDY    77  64  64 W13       29.77R
NORTHERLY ISL    N/A     80  63  55 SW5         N/A  HX  81
$$

LMZ740>746-180200-
SOUTHERN LAKE MICHIGAN

STATION/POSITION SKY/WX   TEMP    WIND        PRES    VSBY  WAVE
                          AIR SEA DIR/SP/G                  HT/PER
                          (F)     (DEG/KT/KT) (MB)    (MI)  (FT/S)
SOUTHERN BUOY              72 71  290/ 12/ 14 1005.3          2/ 5
WILMETTE HARBOR            78 73  250/ 17/ 23   N/A           2/ 3
HARRISON CRIB              80     240/ 16/ 19   N/A
CALUMET HARBOR             79     230/  8/ 16 1006.9R
BURNS HARBOR               79     220/ 12/ 17 1008.1R
MICHIGAN CITY              78     210/ 15/ 18   N/A
MICHIGAN CITY 6N           77 74  230/ 14/ 17   N/A           3/ 4
ST. JOSEPH                 76 74  240/ 14/ 17 1006.8          3/ 4
$$

ILZ025>027-034>036-040-047-049-050-058-095>099-180200-
WEST-CENTRAL ILLINOIS

CITY           SKY/WX    TMP DP  RH WIND       PRES   REMARKS
QUINCY         CLEAR     77  60  55 W7        29.85R
GALESBURG*     CLEAR     72  63  72 W5        29.84R
MACOMB*        MOCLDY    73  67  80 CALM      29.85S
JACKSONVILLE*  PTCLDY    75  65  72 SW7       29.85R
PITTSFIELD*    CLEAR     76  63  64 SW6       29.87R
$$

ILZ028>032-037-038-041>044-048-051>054-059>061-180200-
CENTRAL ILLINOIS

CITY           SKY/WX    TMP DP  RH WIND       PRES   REMARKS
PONTIAC        CLOUDY    77  71  81 W9        29.81R
BLOOMINGTON    PTCLDY    76  67  73 SW9       29.83R
DECATUR        CLOUDY    78  65  63 SW8       29.85R HX  80
PEORIA         CLEAR     77  65  66 NW6       29.83R
LACON*         CLEAR     76  64  66 W3        29.80R
LINCOLN*       CLEAR     78  68  70 SW3       29.83R HX  80
SPRINGFIELD    PTCLDY    76  68  76 SW5       29.84R
TAYLORVILLE    CLEAR     73  67  82 SW5       29.85S
$$

ILZ033-039-045-046-055>057-062-063-180200-
EAST-CENTRAL ILLINOIS

CITY           SKY/WX    TMP DP  RH WIND       PRES   REMARKS
CHAMPAIGN      PTCLDY    75  66  73 W7        29.85R
RANTOUL*       CLOUDY    78  68  71 SW8       29.83S HX  80
MATTOON        MOCLDY    78  67  68 SW6       29.85R HX  80
PARIS*         CLOUDY    76  69  80 W6        29.85S
$$

ILZ079-100>102-180200-
SOUTHWEST ILLINOIS

CITY           SKY/WX    TMP DP  RH WIND       PRES   REMARKS
ALTON          PTCLDY    77  66  69 W8        29.88R
BELLEVILLE     CLOUDY    80  68  67 SW6       29.88R HX  82
CAHOKIA*       CLOUDY    80  63  55 VRB7      29.87R HX  81
SPARTA*        PTCLDY    79  69  72 W5        29.89R HX  81
$$

ILZ064>066-069>071-074>076-080>082-084>086-088>090-092>094-180200-
SOUTH-CENTRAL ILLINOIS

CITY           SKY/WX    TMP DP  RH WIND       PRES   REMARKS
CARBONDALE     PTCLDY    77  74  90 SW7       29.87S
CAIRO*         CLOUDY    78  73  85 S5        29.89R HX  80
EFFINGHAM*     MOCLDY    80  71  74 W7        29.87R HX  83
MARION         PTCLDY    79  77  94 SW5       29.88S HX  83
MT. VERNON     PTCLDY    76  72  87 SW5       29.86S
CENTRALIA*     MOCLDY    81  73  78 SW7       29.86R HX  85
SALEM*         MOCLDY    80  72  76 W6        29.87R HX  84
METROPOLIS*    CLOUDY    79  73  82 SW3       29.90R HX  82
$$

ILZ067-068-072-073-078-083-087-091-180200-
SOUTHEAST ILLINOIS

CITY           SKY/WX    TMP DP  RH WIND       PRES   REMARKS
LAWRENCEVILLE  CLEAR     79  70  74 W5        29.85S HX  82
FLORA*         PTCLDY    78  74  86 SW5       29.86S HX  80
FAIRFIELD*     CLEAR     79  73  80 SW3       29.85S HX  82
HARRISBURG*    PTCLDY    80  73  78 W3        29.88R HX  83
ROBINSON*      CLEAR     73  70  89 SW6       29.86R
CARMI*         CLEAR     76  73  89 SW5       29.86S
$$

ABBREVIATIONS USED IN REMARKS
   TC - TEMPERATURE IN CELSIUS
  WCI - WIND CHILL INDEX
   HX - HEAT INDEX
  VSB - VISIBILITY
$$




USA.gov is the U.S. government's official web portal to all federal, state and local government web resources and services.